Time,TemperatureF,DewpointF,PressureIn,WindDirection,WindDirectionDegrees,WindSpeedMPH,WindSpeedGustMPH,Humidity,HourlyPrecipIn,Conditions,Clouds,dailyrainin,SoftwareType,DateUTC
2014-08-21 00:01:00,67.4,63.0,29.71,WSW,247,0.0,3.0,85,0.00,,,0.00,Rainwise IP-100,2014-08-21 07:01:00,
2014-08-21 00:06:00,67.5,63.0,29.71,WNW,292,3.5,4.0,85,0.00,,,0.00,Rainwise IP-100,2014-08-21 07:06:00,
2014-08-21 00:11:00,67.4,63.0,29.71,WSW,247,1.9,4.0,85,0.00,,,0.00,Rainwise IP-100,2014-08-21 07:11:00,
2014-08-21 00:16:00,67.5,63.0,29.71,WNW,292,2.6,3.0,85,0.00,,,0.00,Rainwise IP-100,2014-08-21 07:16:00,
2014-08-21 00:21:00,67.5,63.0,29.71,WNW,292,0.0,2.0,85,0.00,,,0.00,Rainwise IP-100,2014-08-21 07:21:00,
2014-08-21 00:26:00,67.5,63.0,29.71,NNW,337,0.0,2.0,85,0.00,,,0.00,Rainwise IP-100,2014-08-21 07:26:00,
2014-08-21 00:31:00,67.5,63.0,29.71,NNW,337,1.2,1.2,85,0.00,,,0.00,Rainwise IP-100,2014-08-21 07:31:00,
2014-08-21 00:36:00,67.5,63.0,29.71,NNW,337,1.6,3.0,85,0.00,,,0.00,Rainwise IP-100,2014-08-21 07:36:00,
2014-08-21 00:41:00,67.5,63.0,29.71,NNW,337,2.1,3.0,85,0.00,,,0.00,Rainwise IP-100,2014-08-21 07:41:00,
2014-08-21 00:46:00,67.5,63.0,29.71,WNW,292,2.6,4.0,85,0.00,,,0.00,Rainwise IP-100,2014-08-21 07:46:00,
2014-08-21 00:51:00,67.6,63.0,29.71,NW,315,3.7,3.7,85,0.00,,,0.00,Rainwise IP-100,2014-08-21 07:51:00,
2014-08-21 00:56:00,67.7,63.0,29.71,NNW,337,2.1,6.0,85,0.00,,,0.00,Rainwise IP-100,2014-08-21 07:56:00,
2014-08-21 01:01:00,67.7,62.0,29.71,NW,315,1.9,5.0,84,0.00,,,0.00,Rainwise IP-100,2014-08-21 08:01:00,
2014-08-21 01:06:00,67.8,62.0,29.71,NW,315,2.6,4.0,84,0.00,,,0.00,Rainwise IP-100,2014-08-21 08:06:00,
2014-08-21 01:11:00,67.9,63.0,29.71,NNW,337,1.6,3.0,84,0.00,,,0.00,Rainwise IP-100,2014-08-21 08:11:00,
2014-08-21 01:16:00,67.9,63.0,29.71,NW,315,0.0,2.0,84,0.00,,,0.00,Rainwise IP-100,2014-08-21 08:16:00,
2014-08-21 01:21:00,67.9,63.0,29.71,NNW,337,0.0,2.0,84,0.00,,,0.00,Rainwise IP-100,2014-08-21 08:21:00,
2014-08-21 01:26:00,68.0,63.0,29.71,WNW,292,2.1,4.0,84,0.00,,,0.00,Rainwise IP-100,2014-08-21 08:26:00,
2014-08-21 01:31:00,68.0,63.0,29.70,NNW,337,1.9,3.0,84,0.00,,,0.00,Rainwise IP-100,2014-08-21 08:31:00,
2014-08-21 01:36:00,68.0,63.0,29.71,NNW,337,4.0,4.0,84,0.00,,,0.00,Rainwise IP-100,2014-08-21 08:36:00,
2014-08-21 01:41:00,68.0,63.0,29.70,NW,315,2.8,4.0,84,0.00,,,0.00,Rainwise IP-100,2014-08-21 08:41:00,
2014-08-21 01:46:00,68.0,63.0,29.71,NNW,337,3.0,3.0,84,0.00,,,0.00,Rainwise IP-100,2014-08-21 08:46:00,
2014-08-21 01:51:00,68.0,63.0,29.71,NNW,337,2.3,3.0,84,0.00,,,0.00,Rainwise IP-100,2014-08-21 08:51:00,
2014-08-21 01:56:00,68.0,63.0,29.71,NW,315,2.6,3.0,84,0.00,,,0.00,Rainwise IP-100,2014-08-21 08:56:00,
2014-08-21 02:01:00,68.0,63.0,29.71,NW,315,2.6,3.0,84,0.00,,,0.00,Rainwise IP-100,2014-08-21 09:01:00,
2014-08-21 02:06:00,68.0,63.0,29.70,NW,315,1.6,2.0,84,0.00,,,0.00,Rainwise IP-100,2014-08-21 09:06:00,
2014-08-21 02:11:00,68.1,63.0,29.71,NW,315,1.6,3.0,84,0.00,,,0.00,Rainwise IP-100,2014-08-21 09:11:00,
2014-08-21 02:17:00,68.1,63.0,29.70,NW,315,2.1,2.1,84,0.00,,,0.00,Rainwise IP-100,2014-08-21 09:17:00,
2014-08-21 02:22:00,68.0,63.0,29.71,NW,315,0.0,2.0,84,0.00,,,0.00,Rainwise IP-100,2014-08-21 09:22:00,
2014-08-21 02:27:00,68.1,63.0,29.71,NW,315,3.3,4.0,84,0.00,,,0.00,Rainwise IP-100,2014-08-21 09:27:00,
2014-08-21 02:32:00,68.1,63.0,29.71,NNW,337,0.0,4.0,84,0.00,,,0.00,Rainwise IP-100,2014-08-21 09:32:00,
2014-08-21 02:37:00,68.1,63.0,29.70,NNW,337,0.0,1.0,84,0.00,,,0.00,Rainwise IP-100,2014-08-21 09:37:00,
2014-08-21 02:42:00,68.1,63.0,29.70,NNW,337,1.4,2.0,84,0.00,,,0.00,Rainwise IP-100,2014-08-21 09:42:00,
2014-08-21 02:47:00,68.2,63.0,29.70,NNW,337,0.0,2.0,84,0.00,,,0.00,Rainwise IP-100,2014-08-21 09:47:00,
2014-08-21 02:52:00,68.1,63.0,29.70,NNW,337,1.4,2.0,84,0.00,,,0.00,Rainwise IP-100,2014-08-21 09:52:00,
2014-08-21 02:57:00,68.1,63.0,29.70,NNW,337,0.0,2.0,84,0.00,,,0.00,Rainwise IP-100,2014-08-21 09:57:00,
2014-08-21 03:02:00,68.2,63.0,29.71,NNW,337,2.1,2.1,84,0.00,,,0.00,Rainwise IP-100,2014-08-21 10:02:00,
2014-08-21 03:07:00,68.2,63.0,29.70,NNW,337,1.9,3.0,84,0.00,,,0.00,Rainwise IP-100,2014-08-21 10:07:00,
2014-08-21 03:12:00,68.3,63.0,29.70,NNW,337,0.0,3.0,85,0.00,,,0.00,Rainwise IP-100,2014-08-21 10:12:00,
2014-08-21 03:17:00,68.3,63.0,29.70,NNW,337,2.1,3.0,85,0.00,,,0.00,Rainwise IP-100,2014-08-21 10:17:00,
2014-08-21 03:22:00,68.3,63.0,29.70,NNW,337,0.0,3.0,85,0.00,,,0.00,Rainwise IP-100,2014-08-21 10:22:00,
2014-08-21 03:27:00,68.3,63.0,29.70,NNW,337,1.2,2.0,85,0.00,,,0.00,Rainwise IP-100,2014-08-21 10:27:00,
2014-08-21 03:32:00,68.4,64.0,29.70,NNW,337,0.0,3.0,85,0.00,,,0.00,Rainwise IP-100,2014-08-21 10:32:00,
2014-08-21 03:37:00,68.4,64.0,29.70,NW,315,0.0,2.0,85,0.00,,,0.00,Rainwise IP-100,2014-08-21 10:37:00,
2014-08-21 03:42:00,68.4,64.0,29.70,NNW,337,0.0,3.0,85,0.00,,,0.00,Rainwise IP-100,2014-08-21 10:42:00,
2014-08-21 03:47:00,68.3,63.0,29.69,NNW,337,3.0,4.0,85,0.00,,,0.00,Rainwise IP-100,2014-08-21 10:47:00,
2014-08-21 03:52:00,68.3,63.0,29.69,NNW,337,3.0,3.0,85,0.00,,,0.00,Rainwise IP-100,2014-08-21 10:52:00,
2014-08-21 03:57:00,68.2,63.0,29.69,NW,315,3.0,4.0,85,0.00,,,0.00,Rainwise IP-100,2014-08-21 10:57:00,
2014-08-21 04:02:00,68.2,63.0,29.69,NW,315,0.0,3.0,86,0.00,,,0.00,Rainwise IP-100,2014-08-21 11:02:00,
2014-08-21 04:07:00,68.2,63.0,29.69,WNW,292,1.2,3.0,86,0.00,,,0.00,Rainwise IP-100,2014-08-21 11:07:00,
2014-08-21 04:12:00,68.3,63.0,29.69,WNW,292,1.4,4.0,86,0.00,,,0.00,Rainwise IP-100,2014-08-21 11:12:00,
2014-08-21 04:17:00,68.3,63.0,29.69,NW,315,2.8,5.0,86,0.00,,,0.00,Rainwise IP-100,2014-08-21 11:17:00,
2014-08-21 04:22:00,68.3,63.0,29.69,NNW,337,2.6,4.0,86,0.00,,,0.00,Rainwise IP-100,2014-08-21 11:22:00,
2014-08-21 04:27:00,68.4,64.0,29.69,WNW,292,2.8,5.0,86,0.00,,,0.00,Rainwise IP-100,2014-08-21 11:27:00,
2014-08-21 04:32:00,68.4,64.0,29.68,WNW,292,1.9,5.0,86,0.00,,,0.00,Rainwise IP-100,2014-08-21 11:32:00,
2014-08-21 04:37:00,68.4,64.0,29.69,NW,315,1.4,5.0,86,0.00,,,0.00,Rainwise IP-100,2014-08-21 11:37:00,
2014-08-21 04:42:00,68.4,64.0,29.68,NNW,337,2.6,3.0,86,0.00,,,0.00,Rainwise IP-100,2014-08-21 11:42:00,
2014-08-21 04:47:00,68.3,63.0,29.68,NNW,337,2.8,3.0,86,0.00,,,0.00,Rainwise IP-100,2014-08-21 11:47:00,
2014-08-21 04:52:00,68.3,63.0,29.68,NNW,337,2.6,4.0,86,0.00,,,0.00,Rainwise IP-100,2014-08-21 11:52:00,
2014-08-21 04:57:00,68.3,63.0,29.68,NW,315,1.6,3.0,86,0.00,,,0.00,Rainwise IP-100,2014-08-21 11:57:00,
2014-08-21 05:02:00,68.3,63.0,29.67,NW,315,4.2,5.0,86,0.00,,,0.00,Rainwise IP-100,2014-08-21 12:02:00,
2014-08-21 05:07:00,68.3,63.0,29.68,NNW,337,2.6,5.0,86,0.00,,,0.00,Rainwise IP-100,2014-08-21 12:07:00,
2014-08-21 05:12:00,68.3,63.0,29.67,NNW,337,2.1,6.0,86,0.00,,,0.00,Rainwise IP-100,2014-08-21 12:12:00,
2014-08-21 05:17:00,68.3,63.0,29.68,NNW,337,1.6,3.0,86,0.00,,,0.00,Rainwise IP-100,2014-08-21 12:17:00,
2014-08-21 05:22:00,68.3,63.0,29.68,NNW,337,4.0,4.0,86,0.00,,,0.00,Rainwise IP-100,2014-08-21 12:22:00,
2014-08-21 05:27:00,68.3,63.0,29.68,NNW,337,0.0,5.0,86,0.00,,,0.00,Rainwise IP-100,2014-08-21 12:27:00,
2014-08-21 05:32:00,68.3,63.0,29.68,NNW,337,1.6,4.0,86,0.00,,,0.00,Rainwise IP-100,2014-08-21 12:32:00,
2014-08-21 05:37:00,68.3,63.0,29.68,NW,315,3.3,4.0,86,0.00,,,0.00,Rainwise IP-100,2014-08-21 12:37:00,
2014-08-21 05:42:00,68.3,63.0,29.68,WNW,292,1.9,4.0,86,0.00,,,0.00,Rainwise IP-100,2014-08-21 12:42:00,
2014-08-21 05:47:00,68.3,63.0,29.68,NW,315,2.6,5.0,86,0.00,,,0.00,Rainwise IP-100,2014-08-21 12:47:00,
2014-08-21 05:52:00,68.4,64.0,29.68,NW,315,1.6,4.0,86,0.00,,,0.00,Rainwise IP-100,2014-08-21 12:52:00,
2014-08-21 05:57:00,68.5,64.0,29.69,NW,315,0.0,3.0,86,0.00,,,0.00,Rainwise IP-100,2014-08-21 12:57:00,
2014-08-21 06:02:00,68.6,64.0,29.69,West,270,0.0,3.0,86,0.00,,,0.00,Rainwise IP-100,2014-08-21 13:02:00,
2014-08-21 06:07:00,68.6,64.0,29.69,NNW,337,1.6,3.0,86,0.00,,,0.00,Rainwise IP-100,2014-08-21 13:07:00,
2014-08-21 06:12:00,68.7,64.0,29.69,WNW,292,0.0,4.0,86,0.00,,,0.00,Rainwise IP-100,2014-08-21 13:12:00,
2014-08-21 06:17:00,68.7,64.0,29.69,NNE,22,2.1,5.0,85,0.00,,,0.00,Rainwise IP-100,2014-08-21 13:17:00,
2014-08-21 06:22:00,68.8,64.0,29.69,NNW,337,6.1,6.1,85,0.00,,,0.00,Rainwise IP-100,2014-08-21 13:22:00,
2014-08-21 06:27:00,68.8,64.0,29.70,NW,315,3.3,6.0,85,0.00,,,0.00,Rainwise IP-100,2014-08-21 13:27:00,
2014-08-21 06:32:00,68.7,64.0,29.70,NNW,337,0.0,6.0,85,0.00,,,0.00,Rainwise IP-100,2014-08-21 13:32:00,
2014-08-21 06:37:00,68.7,64.0,29.70,NW,315,4.2,5.0,85,0.00,,,0.00,Rainwise IP-100,2014-08-21 13:37:00,
2014-08-21 06:42:00,68.8,64.0,29.70,NNW,337,2.6,4.0,85,0.00,,,0.00,Rainwise IP-100,2014-08-21 13:42:00,
2014-08-21 06:47:00,68.8,64.0,29.70,WNW,292,4.7,6.0,85,0.00,,,0.00,Rainwise IP-100,2014-08-21 13:47:00,
2014-08-21 06:52:00,68.7,64.0,29.70,WNW,292,4.7,7.0,85,0.00,,,0.00,Rainwise IP-100,2014-08-21 13:52:00,
2014-08-21 06:57:00,68.7,64.0,29.70,NW,315,0.0,6.0,85,0.00,,,0.00,Rainwise IP-100,2014-08-21 13:57:00,
2014-08-21 07:02:00,68.8,64.0,29.70,WSW,247,2.8,2.8,85,0.00,,,0.00,Rainwise IP-100,2014-08-21 14:02:00,
2014-08-21 07:07:00,68.9,64.0,29.70,WNW,292,1.2,4.0,85,0.00,,,0.00,Rainwise IP-100,2014-08-21 14:07:00,
2014-08-21 07:12:00,68.9,64.0,29.70,NW,315,2.3,4.0,85,0.00,,,0.00,Rainwise IP-100,2014-08-21 14:12:00,
2014-08-21 07:17:00,69.0,64.0,29.70,WNW,292,2.3,4.0,85,0.00,,,0.00,Rainwise IP-100,2014-08-21 14:17:00,
2014-08-21 07:22:00,69.1,64.0,29.71,WNW,292,2.1,4.0,84,0.00,,,0.00,Rainwise IP-100,2014-08-21 14:22:00,
2014-08-21 07:27:00,69.2,64.0,29.71,NW,315,4.7,6.0,84,0.00,,,0.00,Rainwise IP-100,2014-08-21 14:27:00,
2014-08-21 07:32:00,69.3,64.0,29.71,WNW,292,3.3,6.0,84,0.00,,,0.00,Rainwise IP-100,2014-08-21 14:32:00,
2014-08-21 07:37:00,69.3,64.0,29.71,WSW,247,2.8,5.0,84,0.00,,,0.00,Rainwise IP-100,2014-08-21 14:37:00,
2014-08-21 07:42:00,69.4,64.0,29.72,WNW,292,5.8,5.8,84,0.00,,,0.00,Rainwise IP-100,2014-08-21 14:42:00,
2014-08-21 07:47:00,69.5,64.0,29.72,West,270,2.3,7.0,84,0.00,,,0.00,Rainwise IP-100,2014-08-21 14:47:00,
2014-08-21 07:52:00,69.6,64.0,29.72,WNW,292,5.1,7.0,83,0.00,,,0.00,Rainwise IP-100,2014-08-21 14:52:00,
2014-08-21 07:57:00,69.7,64.0,29.72,West,270,4.2,5.0,82,0.00,,,0.00,Rainwise IP-100,2014-08-21 14:57:00,
2014-08-21 08:02:00,69.8,64.0,29.72,WNW,292,3.5,6.0,82,0.00,,,0.00,Rainwise IP-100,2014-08-21 15:02:00,
2014-08-21 08:07:00,69.9,64.0,29.72,WNW,292,3.3,5.0,82,0.00,,,0.00,Rainwise IP-100,2014-08-21 15:07:00,
2014-08-21 08:12:00,69.9,64.0,29.72,WSW,247,5.4,8.0,82,0.00,,,0.00,Rainwise IP-100,2014-08-21 15:12:00,
2014-08-21 08:17:00,69.9,64.0,29.73,WSW,247,1.2,6.0,83,0.00,,,0.00,Rainwise IP-100,2014-08-21 15:17:00,
2014-08-21 08:22:00,70.0,64.0,29.72,WNW,292,4.9,6.0,83,0.00,,,0.00,Rainwise IP-100,2014-08-21 15:22:00,
2014-08-21 08:27:00,70.1,64.0,29.72,WNW,292,3.5,4.0,83,0.00,,,0.00,Rainwise IP-100,2014-08-21 15:27:00,
2014-08-21 08:32:00,70.2,64.0,29.72,WNW,292,1.9,5.0,82,0.00,,,0.00,Rainwise IP-100,2014-08-21 15:32:00,
2014-08-21 08:37:00,70.3,64.0,29.72,WNW,292,2.6,7.0,81,0.00,,,0.00,Rainwise IP-100,2014-08-21 15:37:00,
2014-08-21 08:42:00,70.4,64.0,29.73,WNW,292,2.6,7.0,80,0.00,,,0.00,Rainwise IP-100,2014-08-21 15:42:00,
2014-08-21 08:47:00,70.5,64.0,29.73,NW,315,0.0,6.0,80,0.00,,,0.00,Rainwise IP-100,2014-08-21 15:47:00,
2014-08-21 08:52:00,70.6,63.0,29.73,NW,315,1.4,7.0,79,0.00,,,0.00,Rainwise IP-100,2014-08-21 15:52:00,
2014-08-21 08:57:00,70.7,63.0,29.73,WNW,292,3.3,6.0,79,0.00,,,0.00,Rainwise IP-100,2014-08-21 15:57:00,
2014-08-21 09:02:00,70.7,63.0,29.73,NNW,337,2.6,5.0,79,0.00,,,0.00,Rainwise IP-100,2014-08-21 16:02:00,
2014-08-21 09:07:00,70.9,63.0,29.73,NW,315,6.3,7.0,78,0.00,,,0.00,Rainwise IP-100,2014-08-21 16:07:00,
2014-08-21 09:12:00,71.1,63.0,29.73,NNW,337,1.2,7.0,77,0.00,,,0.00,Rainwise IP-100,2014-08-21 16:12:00,
2014-08-21 09:17:00,71.3,63.0,29.73,NNW,337,2.8,7.0,77,0.00,,,0.00,Rainwise IP-100,2014-08-21 16:17:00,
2014-08-21 09:22:00,71.7,63.0,29.73,ENE,67,0.0,5.0,76,0.00,,,0.00,Rainwise IP-100,2014-08-21 16:22:00,
2014-08-21 09:27:00,71.9,63.0,29.73,NW,315,0.0,5.0,75,0.00,,,0.00,Rainwise IP-100,2014-08-21 16:27:00,
2014-08-21 09:32:00,72.0,63.0,29.73,WNW,292,1.4,4.0,75,0.00,,,0.00,Rainwise IP-100,2014-08-21 16:32:00,
2014-08-21 09:37:00,72.1,63.0,29.73,SSE,157,0.0,3.0,75,0.00,,,0.00,Rainwise IP-100,2014-08-21 16:37:00,
2014-08-21 09:42:00,72.6,64.0,29.73,WNW,292,4.0,4.0,74,0.00,,,0.00,Rainwise IP-100,2014-08-21 16:42:00,
2014-08-21 09:47:00,73.6,64.0,29.73,WSW,247,4.0,4.0,72,0.00,,,0.00,Rainwise IP-100,2014-08-21 16:47:00,
2014-08-21 09:52:00,74.5,64.0,29.73,SSE,157,2.1,4.0,70,0.00,,,0.00,Rainwise IP-100,2014-08-21 16:52:00,
2014-08-21 09:57:00,75.0,64.0,29.73,WNW,292,1.2,4.0,69,0.00,,,0.00,Rainwise IP-100,2014-08-21 16:57:00,
2014-08-21 10:02:00,75.6,64.0,29.73,WNW,292,0.0,6.0,68,0.00,,,0.00,Rainwise IP-100,2014-08-21 17:02:00,
2014-08-21 10:07:00,76.1,64.0,29.73,NNW,337,0.0,4.0,67,0.00,,,0.00,Rainwise IP-100,2014-08-21 17:07:00,
2014-08-21 10:12:00,76.3,64.0,29.73,WNW,292,6.5,7.0,66,0.00,,,0.00,Rainwise IP-100,2014-08-21 17:12:00,
2014-08-21 10:17:00,75.9,63.0,29.72,WSW,247,8.4,8.4,66,0.00,,,0.00,Rainwise IP-100,2014-08-21 17:17:00,
2014-08-21 10:22:00,74.6,64.0,29.72,WSW,247,7.2,13.0,69,0.00,,,0.00,Rainwise IP-100,2014-08-21 17:22:00,
2014-08-21 10:27:00,73.8,64.0,29.73,WSW,247,6.1,10.0,72,0.00,,,0.00,Rainwise IP-100,2014-08-21 17:27:00,
2014-08-21 10:32:00,73.7,64.0,29.73,WSW,247,7.7,13.0,73,0.00,,,0.00,Rainwise IP-100,2014-08-21 17:32:00,
2014-08-21 10:37:00,73.6,64.0,29.72,West,270,4.0,11.0,73,0.00,,,0.00,Rainwise IP-100,2014-08-21 17:37:00,
2014-08-21 10:42:00,73.7,64.0,29.72,WSW,247,6.1,11.0,73,0.00,,,0.00,Rainwise IP-100,2014-08-21 17:42:00,
2014-08-21 10:47:00,74.0,65.0,29.72,WSW,247,3.7,12.0,73,0.00,,,0.00,Rainwise IP-100,2014-08-21 17:47:00,
2014-08-21 10:52:00,74.4,65.0,29.72,WSW,247,8.4,13.0,72,0.00,,,0.00,Rainwise IP-100,2014-08-21 17:52:00,
2014-08-21 10:57:00,74.6,65.0,29.72,WSW,247,3.5,11.0,71,0.00,,,0.00,Rainwise IP-100,2014-08-21 17:57:00,
2014-08-21 11:02:00,74.5,65.0,29.72,WSW,247,6.8,12.0,71,0.00,,,0.00,Rainwise IP-100,2014-08-21 18:02:00,
2014-08-21 11:07:00,74.4,64.0,29.73,WNW,292,7.7,9.0,71,0.00,,,0.00,Rainwise IP-100,2014-08-21 18:07:00,
2014-08-21 11:12:00,74.3,64.0,29.72,WSW,247,1.9,10.0,71,0.00,,,0.00,Rainwise IP-100,2014-08-21 18:12:00,
2014-08-21 11:17:00,74.3,64.0,29.72,WNW,292,7.7,9.0,71,0.00,,,0.00,Rainwise IP-100,2014-08-21 18:17:00,
2014-08-21 11:22:00,74.6,64.0,29.72,WSW,247,4.0,9.0,70,0.00,,,0.00,Rainwise IP-100,2014-08-21 18:22:00,
2014-08-21 11:27:00,74.8,64.0,29.72,WNW,292,5.6,8.0,69,0.00,,,0.00,Rainwise IP-100,2014-08-21 18:27:00,
2014-08-21 11:32:00,74.6,64.0,29.72,NW,315,6.5,8.0,69,0.00,,,0.00,Rainwise IP-100,2014-08-21 18:32:00,
2014-08-21 11:37:00,74.3,63.0,29.72,North,360,2.3,7.0,69,0.00,,,0.00,Rainwise IP-100,2014-08-21 18:37:00,
2014-08-21 11:42:00,74.5,64.0,29.72,WNW,292,5.1,8.0,69,0.00,,,0.00,Rainwise IP-100,2014-08-21 18:42:00,
2014-08-21 11:47:00,74.7,64.0,29.72,WNW,292,4.7,10.0,69,0.00,,,0.00,Rainwise IP-100,2014-08-21 18:47:00,
2014-08-21 11:52:00,74.6,64.0,29.72,NNW,337,3.3,10.0,69,0.00,,,0.00,Rainwise IP-100,2014-08-21 18:52:00,
2014-08-21 11:57:00,75.0,64.0,29.72,WNW,292,5.8,8.0,69,0.00,,,0.00,Rainwise IP-100,2014-08-21 18:57:00,
2014-08-21 12:02:00,75.4,64.0,29.72,WSW,247,4.7,11.0,68,0.00,,,0.00,Rainwise IP-100,2014-08-21 19:02:00,
2014-08-21 12:07:00,75.7,64.0,29.71,WSW,247,2.6,8.0,68,0.00,,,0.00,Rainwise IP-100,2014-08-21 19:07:00,
2014-08-21 12:12:00,76.8,65.0,29.71,WNW,292,6.1,9.0,67,0.00,,,0.00,Rainwise IP-100,2014-08-21 19:12:00,
2014-08-21 12:17:00,77.6,65.0,29.71,ENE,67,0.0,7.0,65,0.00,,,0.00,Rainwise IP-100,2014-08-21 19:17:00,
2014-08-21 12:22:00,78.1,65.0,29.71,NNE,22,0.0,5.0,64,0.00,,,0.00,Rainwise IP-100,2014-08-21 19:22:00,
2014-08-21 12:27:00,78.8,65.0,29.71,WSW,247,4.0,11.0,63,0.00,,,0.00,Rainwise IP-100,2014-08-21 19:27:00,
2014-08-21 12:32:00,78.4,65.0,29.71,WNW,292,3.5,14.0,63,0.00,,,0.00,Rainwise IP-100,2014-08-21 19:32:00,
2014-08-21 12:37:00,77.6,64.0,29.71,WNW,292,4.7,10.0,64,0.00,,,0.00,Rainwise IP-100,2014-08-21 19:37:00,
2014-08-21 12:42:00,77.1,64.0,29.71,WNW,292,6.1,11.0,65,0.00,,,0.00,Rainwise IP-100,2014-08-21 19:42:00,
2014-08-21 12:47:00,77.0,65.0,29.71,WNW,292,10.3,11.0,66,0.00,,,0.00,Rainwise IP-100,2014-08-21 19:47:00,
2014-08-21 12:52:00,77.4,65.0,29.70,WNW,292,3.7,13.0,66,0.00,,,0.00,Rainwise IP-100,2014-08-21 19:52:00,
2014-08-21 12:57:00,77.7,65.0,29.70,WSW,247,4.0,11.0,66,0.00,,,0.00,Rainwise IP-100,2014-08-21 19:57:00,
2014-08-21 13:02:00,77.8,65.0,29.70,WSW,247,7.9,10.0,65,0.00,,,0.00,Rainwise IP-100,2014-08-21 20:02:00,
2014-08-21 13:07:00,77.8,65.0,29.70,WNW,292,9.1,11.0,65,0.00,,,0.00,Rainwise IP-100,2014-08-21 20:07:00,
2014-08-21 13:12:00,77.0,65.0,29.71,NW,315,7.0,14.0,66,0.00,,,0.00,Rainwise IP-100,2014-08-21 20:12:00,
2014-08-21 13:17:00,76.4,65.0,29.70,NW,315,9.6,13.0,67,0.00,,,0.00,Rainwise IP-100,2014-08-21 20:17:00,
2014-08-21 13:22:00,76.5,65.0,29.70,WNW,292,6.1,12.0,67,0.00,,,0.00,Rainwise IP-100,2014-08-21 20:22:00,
2014-08-21 13:27:00,76.6,65.0,29.70,WSW,247,1.9,14.0,67,0.00,,,0.00,Rainwise IP-100,2014-08-21 20:27:00,
2014-08-21 13:32:00,77.0,65.0,29.70,WNW,292,5.8,9.0,67,0.00,,,0.00,Rainwise IP-100,2014-08-21 20:32:00,
2014-08-21 13:37:00,77.4,65.0,29.70,NNW,337,3.3,13.0,66,0.00,,,0.00,Rainwise IP-100,2014-08-21 20:37:00,
2014-08-21 13:42:00,77.4,65.0,29.70,WNW,292,2.6,11.0,66,0.00,,,0.00,Rainwise IP-100,2014-08-21 20:42:00,
2014-08-21 13:47:00,77.4,65.0,29.70,NNW,337,4.7,12.0,66,0.00,,,0.00,Rainwise IP-100,2014-08-21 20:47:00,
2014-08-21 13:52:00,77.4,65.0,29.70,WNW,292,6.5,13.0,66,0.00,,,0.00,Rainwise IP-100,2014-08-21 20:52:00,
2014-08-21 13:57:00,77.5,65.0,29.70,NNW,337,4.7,9.0,66,0.00,,,0.00,Rainwise IP-100,2014-08-21 20:57:00,
2014-08-21 14:02:00,77.4,65.0,29.70,WNW,292,1.4,11.0,65,0.00,,,0.00,Rainwise IP-100,2014-08-21 21:02:00,
2014-08-21 14:07:00,77.6,65.0,29.70,NNW,337,4.2,9.0,65,0.00,,,0.00,Rainwise IP-100,2014-08-21 21:07:00,
2014-08-21 14:12:00,77.8,65.0,29.69,WNW,292,7.2,11.0,65,0.00,,,0.00,Rainwise IP-100,2014-08-21 21:12:00,
2014-08-21 14:17:00,77.3,65.0,29.69,NNW,337,5.4,13.0,65,0.00,,,0.00,Rainwise IP-100,2014-08-21 21:17:00,
2014-08-21 14:22:00,76.9,65.0,29.68,NW,315,7.9,11.0,66,0.00,,,0.00,Rainwise IP-100,2014-08-21 21:22:00,
2014-08-21 14:27:00,76.7,64.0,29.69,WNW,292,6.8,12.0,66,0.00,,,0.00,Rainwise IP-100,2014-08-21 21:27:00,
2014-08-21 14:32:00,76.5,65.0,29.68,WNW,292,8.9,13.0,67,0.00,,,0.00,Rainwise IP-100,2014-08-21 21:32:00,
2014-08-21 14:37:00,77.0,65.0,29.68,West,270,4.4,12.0,67,0.00,,,0.00,Rainwise IP-100,2014-08-21 21:37:00,
2014-08-21 14:42:00,77.5,65.0,29.67,WSW,247,9.3,13.0,65,0.00,,,0.00,Rainwise IP-100,2014-08-21 21:42:00,
2014-08-21 14:47:00,77.4,65.0,29.67,WSW,247,3.0,12.0,65,0.00,,,0.00,Rainwise IP-100,2014-08-21 21:47:00,
2014-08-21 14:52:00,77.2,65.0,29.67,WSW,247,8.9,13.0,65,0.00,,,0.00,Rainwise IP-100,2014-08-21 21:52:00,
2014-08-21 14:57:00,76.9,65.0,29.67,WSW,247,7.9,11.0,66,0.00,,,0.00,Rainwise IP-100,2014-08-21 21:57:00,
2014-08-21 15:02:00,76.6,64.0,29.67,WSW,247,6.8,14.0,66,0.00,,,0.00,Rainwise IP-100,2014-08-21 22:02:00,
2014-08-21 15:07:00,76.7,64.0,29.67,WNW,292,4.9,11.0,66,0.00,,,0.00,Rainwise IP-100,2014-08-21 22:07:00,
2014-08-21 15:12:00,76.8,64.0,29.67,WNW,292,7.0,9.0,66,0.00,,,0.00,Rainwise IP-100,2014-08-21 22:12:00,
2014-08-21 15:17:00,77.0,64.0,29.67,WNW,292,10.5,11.0,65,0.00,,,0.00,Rainwise IP-100,2014-08-21 22:17:00,
2014-08-21 15:22:00,76.7,64.0,29.67,WSW,247,6.1,14.0,65,0.00,,,0.00,Rainwise IP-100,2014-08-21 22:22:00,
2014-08-21 15:27:00,76.5,64.0,29.67,WSW,247,7.7,12.0,65,0.00,,,0.00,Rainwise IP-100,2014-08-21 22:27:00,
2014-08-21 15:32:00,76.3,64.0,29.67,WNW,292,6.8,12.0,66,0.00,,,0.00,Rainwise IP-100,2014-08-21 22:32:00,
2014-08-21 15:37:00,76.0,63.0,29.66,SSW,202,2.3,14.0,66,0.00,,,0.00,Rainwise IP-100,2014-08-21 22:37:00,
2014-08-21 15:42:00,76.1,63.0,29.67,NW,315,9.3,13.0,66,0.00,,,0.00,Rainwise IP-100,2014-08-21 22:42:00,
2014-08-21 15:47:00,76.2,64.0,29.67,West,270,0.0,13.0,66,0.00,,,0.00,Rainwise IP-100,2014-08-21 22:47:00,
2014-08-21 15:52:00,76.4,64.0,29.67,NW,315,6.5,10.0,66,0.00,,,0.00,Rainwise IP-100,2014-08-21 22:52:00,
2014-08-21 15:57:00,76.4,64.0,29.67,WNW,292,7.2,12.0,66,0.00,,,0.00,Rainwise IP-100,2014-08-21 22:57:00,
2014-08-21 16:02:00,75.7,63.0,29.67,WNW,292,9.8,11.0,66,0.00,,,0.00,Rainwise IP-100,2014-08-21 23:02:00,
2014-08-21 16:07:00,75.2,63.0,29.67,NW,315,4.0,12.0,67,0.00,,,0.00,Rainwise IP-100,2014-08-21 23:07:00,
2014-08-21 16:12:00,74.6,63.0,29.67,NNW,337,8.9,13.0,68,0.00,,,0.00,Rainwise IP-100,2014-08-21 23:12:00,
2014-08-21 16:18:00,74.3,63.0,29.67,NW,315,11.9,11.9,69,0.00,,,0.00,Rainwise IP-100,2014-08-21 23:18:00,
2014-08-21 16:23:00,74.5,64.0,29.67,WNW,292,5.6,13.0,70,0.00,,,0.00,Rainwise IP-100,2014-08-21 23:23:00,
2014-08-21 16:28:00,74.3,64.0,29.67,NNW,337,8.4,11.0,70,0.00,,,0.00,Rainwise IP-100,2014-08-21 23:28:00,
2014-08-21 16:33:00,74.3,64.0,29.67,NW,315,8.9,11.0,70,0.00,,,0.00,Rainwise IP-100,2014-08-21 23:33:00,
2014-08-21 16:38:00,74.1,64.0,29.67,WSW,247,2.1,12.0,70,0.00,,,0.00,Rainwise IP-100,2014-08-21 23:38:00,
2014-08-21 16:43:00,74.1,64.0,29.67,WNW,292,6.1,14.0,70,0.00,,,0.00,Rainwise IP-100,2014-08-21 23:43:00,
2014-08-21 16:48:00,74.2,64.0,29.67,WNW,292,7.5,10.0,70,0.00,,,0.00,Rainwise IP-100,2014-08-21 23:48:00,
2014-08-21 16:53:00,74.2,64.0,29.67,WNW,292,2.3,14.0,70,0.00,,,0.00,Rainwise IP-100,2014-08-21 23:53:00,
2014-08-21 16:58:00,74.3,64.0,29.68,SW,225,3.5,10.0,70,0.00,,,0.00,Rainwise IP-100,2014-08-21 23:58:00,
2014-08-21 17:03:00,74.1,64.0,29.68,NNW,337,9.8,11.0,70,0.00,,,0.00,Rainwise IP-100,2014-08-22 00:03:00,
2014-08-21 17:08:00,73.7,64.0,29.68,NNE,22,2.8,10.0,71,0.00,,,0.00,Rainwise IP-100,2014-08-22 00:08:00,
2014-08-21 17:13:00,73.9,64.0,29.68,NNW,337,2.6,7.0,71,0.00,,,0.00,Rainwise IP-100,2014-08-22 00:13:00,
2014-08-21 17:18:00,74.5,64.0,29.68,NNW,337,3.0,10.0,70,0.00,,,0.00,Rainwise IP-100,2014-08-22 00:18:00,
2014-08-21 17:23:00,74.4,63.0,29.68,WNW,292,3.7,10.0,69,0.00,,,0.00,Rainwise IP-100,2014-08-22 00:23:00,
2014-08-21 17:28:00,73.9,64.0,29.68,NW,315,5.4,10.0,70,0.00,,,0.00,Rainwise IP-100,2014-08-22 00:28:00,
2014-08-21 17:33:00,73.8,63.0,29.68,WSW,247,2.3,9.0,70,0.00,,,0.00,Rainwise IP-100,2014-08-22 00:33:00,
2014-08-21 17:38:00,74.1,64.0,29.68,NNW,337,2.6,7.0,70,0.00,,,0.00,Rainwise IP-100,2014-08-22 00:38:00,
2014-08-21 17:43:00,74.5,64.0,29.68,WNW,292,4.2,7.0,70,0.00,,,0.00,Rainwise IP-100,2014-08-22 00:43:00,
2014-08-21 17:48:00,74.3,64.0,29.68,WSW,247,3.0,9.0,70,0.00,,,0.00,Rainwise IP-100,2014-08-22 00:48:00,
2014-08-21 17:53:00,74.1,64.0,29.68,WNW,292,6.3,9.0,70,0.00,,,0.00,Rainwise IP-100,2014-08-22 00:53:00,
2014-08-21 17:58:00,73.9,64.0,29.68,NW,315,7.7,9.0,70,0.00,,,0.00,Rainwise IP-100,2014-08-22 00:58:00,
2014-08-21 18:03:00,73.4,63.0,29.68,WSW,247,4.9,8.0,70,0.00,,,0.00,Rainwise IP-100,2014-08-22 01:03:00,